{"data":{"norad_id":60097,"epoch":"2026-09-21T06:15:45.717984Z","epoch_age_seconds":112507,"freshness":"FRESH","line1":"1 60097U 24117G   26264.26094581  .00000295  00000+0  19874-4 0  9990","line2":"2 60097  53.1590 206.2815 0001427  86.2281 273.8885 15.34392174126865","mean_motion":15.34392174,"eccentricity":0.0001427,"inclination_deg":53.159,"raan_deg":206.2815,"arg_perigee_deg":86.2281,"mean_anomaly_deg":273.8885,"bstar":1.9874e-5,"rev_number":12686,"period_min":93.848236741593,"perigee_km":461.75030960566,"apogee_km":463.70269204879,"semimajor_km":6840.8635008272,"source":"CELESTRAK","updated_at":"2026-09-22T09:00:49.150814Z"}}